[keps] orb12096.amsat

Ray Hoad ray.hoad at mypbmail.com
Thu Apr 5 19:22:33 PDT 2012


SB KEPS @ AMSAT  $ORB12096.O
Orbital Elements  12096.OSCAR

HR AMSAT ORBITAL ELEMENTS FOR OSCAR SATELLITES
FROM WA5QGD FORT WORTH,TX April 5, 2012
Send SUBSCRIBE KEPS/UNSUBSCRIBE KEPS to majordomo at amsat.org only
BID: ORB12096.O
TO ALL RADIO AMATEURS BT

Satellite: AO-07
Catalog number: 07530
Epoch time:      12095.48483840
Element set:    0350
Inclination:      101.4019 deg
RA of node:       095.5458 deg
Eccentricity:    0.0012116
Arg of perigee:   066.9442 deg
Mean anomaly:     293.2909 deg
Mean motion:   12.53588472 rev/day
Decay rate:       -2.7e-07 rev/day^2
Epoch rev:           71081
Checksum:              297

Satellite: FO-29
Catalog number: 24278
Epoch time:      12095.90022129
Element set:    0815
Inclination:      098.5787 deg
RA of node:       206.1610 deg
Eccentricity:    0.0350015
Arg of perigee:   218.9441 deg
Mean anomaly:     138.6007 deg
Mean motion:   13.52979774 rev/day
Decay rate:        3.7e-07 rev/day^2
Epoch rev:           77204
Checksum:              313

Satellite: SO-33
Catalog number: 25509
Epoch time:      12095.90162064
Element set:    0202
Inclination:      031.4360 deg
RA of node:       028.3968 deg
Eccentricity:    0.0353227
Arg of perigee:   281.9615 deg
Mean anomaly:     074.1617 deg
Mean motion:   14.28689742 rev/day
Decay rate:       3.68e-06 rev/day^2
Epoch rev:           70216
Checksum:              303

Satellite: RS-22
Catalog number: 27939
Epoch time:      12096.54935233
Element set:     237
Inclination:      097.8185 deg
RA of node:       301.0717 deg
Eccentricity:    0.0014232
Arg of perigee:   132.4665 deg
Mean anomaly:     227.7755 deg
Mean motion:   14.63957139 rev/day
Decay rate:       6.29e-06 rev/day^2
Epoch rev:           45525
Checksum:              325

Satellite: VO-52
Catalog number: 28650
Epoch time:      12095.84181658
Element set:      67
Inclination:      097.6048 deg
RA of node:       130.3666 deg
Eccentricity:    0.0025377
Arg of perigee:   282.9687 deg
Mean anomaly:     076.8728 deg
Mean motion:   14.82791293 rev/day
Decay rate:       9.15e-06 rev/day^2
Epoch rev:           37410
Checksum:              348

Satellite: HO-68
Catalog number: 36122
Epoch time:      12096.62834490
Element set:     350
Inclination:      100.3693 deg
RA of node:       157.4170 deg
Eccentricity:    0.0007129
Arg of perigee:   275.3820 deg
Mean anomaly:     084.6477 deg
Mean motion:   13.16294299 rev/day
Decay rate:       -4.4e-07 rev/day^2
Epoch rev:           11084
Checksum:              299

/EX
SB KEPS @ AMSAT  $ORB12096.D
Orbital Elements  12096.MICROS

HR AMSAT ORBITAL ELEMENTS FOR THE MICROSATS
FROM WA5QGD FORT WORTH,TX April 5, 2012
Send SUBSCRIBE KEPS/UNSUBSCRIBE KEPS to majordomo at amsat.org only
BID: ORB12096.D
TO ALL RADIO AMATEURS BT

Satellite: UO-11
Catalog number: 14781
Epoch time:      12095.92125242
Element set:    0833
Inclination:      097.9628 deg
RA of node:       156.0596 deg
Eccentricity:    0.0007881
Arg of perigee:   272.5396 deg
Mean anomaly:     087.4913 deg
Mean motion:   14.80368287 rev/day
Decay rate:       4.94e-06 rev/day^2
Epoch rev:           50909
Checksum:              341

Satellite: AO-16
Catalog number: 20439
Epoch time:      12095.86341622
Element set:    0443
Inclination:      098.4231 deg
RA of node:       041.3148 deg
Eccentricity:    0.0011528
Arg of perigee:   020.6015 deg
Mean anomaly:     339.5628 deg
Mean motion:   14.32033949 rev/day
Decay rate:       1.91e-06 rev/day^2
Epoch rev:           15950
Checksum:              279

Satellite: LO-19
Catalog number: 20442
Epoch time:      12096.87561532
Element set:     361
Inclination:      098.3892 deg
RA of node:       045.5592 deg
Eccentricity:    0.0012240
Arg of perigee:   010.0729 deg
Mean anomaly:     350.0691 deg
Mean motion:   14.32254180 rev/day
Decay rate:       1.46e-06 rev/day^2
Epoch rev:           15983
Checksum:              285

Satellite: AO-27
Catalog number: 22825
Epoch time:      12096.86936379
Element set:      71
Inclination:      098.5688 deg
RA of node:       040.8319 deg
Eccentricity:    0.0009205
Arg of perigee:   128.9635 deg
Mean anomaly:     231.2364 deg
Mean motion:   14.29443750 rev/day
Decay rate:       1.04e-06 rev/day^2
Epoch rev:           96614
Checksum:              325

Satellite: IO-26
Catalog number: 22826
Epoch time:      12095.90427898
Element set:    0832
Inclination:      098.5628 deg
RA of node:       040.2725 deg
Eccentricity:    0.0009504
Arg of perigee:   124.9263 deg
Mean anomaly:     235.2808 deg
Mean motion:   14.29715664 rev/day
Decay rate:       1.31e-06 rev/day^2
Epoch rev:           96613
Checksum:              321

Satellite: GO-32
Catalog number: 25397
Epoch time:      12095.65213738
Element set:     742
Inclination:      098.3567 deg
RA of node:       078.0051 deg
Eccentricity:    0.0002078
Arg of perigee:   121.0945 deg
Mean anomaly:     239.0456 deg
Mean motion:   14.23265405 rev/day
Decay rate:       -9.0e-08 rev/day^2
Epoch rev:           71356
Checksum:              299

Satellite: NO-44
Catalog number: 26931
Epoch time:      12095.87220840
Element set:    0009
Inclination:      067.0537 deg
RA of node:       309.2960 deg
Eccentricity:    0.0007064
Arg of perigee:   275.2431 deg
Mean anomaly:     084.7867 deg
Mean motion:   14.29779045 rev/day
Decay rate:       3.12e-06 rev/day^2
Epoch rev:           54876
Checksum:              318

Satellite: SO-50
Catalog number: 27607
Epoch time:      12095.61002232
Element set:    0730
Inclination:      064.5585 deg
RA of node:       158.7070 deg
Eccentricity:    0.0084948
Arg of perigee:   263.0751 deg
Mean anomaly:     096.0676 deg
Mean motion:   14.72291947 rev/day
Decay rate:       7.50e-06 rev/day^2
Epoch rev:           49913
Checksum:              316

Satellite: CO-55
Catalog number: 27844
Epoch time:      12095.55220773
Element set:    0344
Inclination:      098.7054 deg
RA of node:       105.0002 deg
Eccentricity:    0.0010696
Arg of perigee:   075.2867 deg
Mean anomaly:     284.9504 deg
Mean motion:   14.20987606 rev/day
Decay rate:       2.36e-06 rev/day^2
Epoch rev:           45443
Checksum:              308

Satellite: CO-57
Catalog number: 27848
Epoch time:      12095.68393824
Element set:     295
Inclination:      098.7136 deg
RA of node:       104.4311 deg
Eccentricity:    0.0010703
Arg of perigee:   080.6503 deg
Mean anomaly:     279.5893 deg
Mean motion:   14.20744181 rev/day
Decay rate:       2.31e-06 rev/day^2
Epoch rev:           45439
Checksum:              314

Satellite: AO-51
Catalog number: 28375
Epoch time:      12095.95983011
Element set:    0236
Inclination:      098.1392 deg
RA of node:       064.6739 deg
Eccentricity:    0.0082794
Arg of perigee:   263.2956 deg
Mean anomaly:     095.8776 deg
Mean motion:   14.40922112 rev/day
Decay rate:       2.16e-06 rev/day^2
Epoch rev:           40822
Checksum:              328

Satellite: CP3
Catalog number: 31129
Epoch time:      12095.46832776
Element set:    0134
Inclination:      097.8842 deg
RA of node:       107.5817 deg
Eccentricity:    0.0101247
Arg of perigee:   353.3045 deg
Mean anomaly:     006.6850 deg
Mean motion:   14.52970661 rev/day
Decay rate:       7.81e-06 rev/day^2
Epoch rev:           26327
Checksum:              303

Satellite: CO-65
Catalog number: 32785
Epoch time:      12095.82980153
Element set:    0274
Inclination:      097.8077 deg
RA of node:       158.5998 deg
Eccentricity:    0.0013918
Arg of perigee:   304.9887 deg
Mean anomaly:     054.9972 deg
Mean motion:   14.82804553 rev/day
Decay rate:      1.487e-05 rev/day^2
Epoch rev:           21289
Checksum:              373

Satellite: PRISM
Catalog number: 33493
Epoch time:      12096.49319727
Element set:     578
Inclination:      098.1592 deg
RA of node:       235.3898 deg
Eccentricity:    0.0019323
Arg of perigee:   169.6484 deg
Mean anomaly:     190.5141 deg
Mean motion:   14.83487915 rev/day
Decay rate:      3.332e-05 rev/day^2
Epoch rev:           17297
Checksum:              346

Satellite: SOHLA-1
Catalog number: 33496
Epoch time:      12095.86060180
Element set:    0707
Inclination:      098.0965 deg
RA of node:       208.1165 deg
Eccentricity:    0.0005597
Arg of perigee:   275.9766 deg
Mean anomaly:     084.0795 deg
Mean motion:   14.69910215 rev/day
Decay rate:       4.21e-06 rev/day^2
Epoch rev:           17147
Checksum:              322

Satellite: SO-67
Catalog number: 35870
Epoch time:      12096.61655601
Element set:     838
Inclination:      097.2409 deg
RA of node:       134.9172 deg
Eccentricity:    0.0003769
Arg of perigee:   076.8307 deg
Mean anomaly:     080.9221 deg
Mean motion:   15.23198506 rev/day
Decay rate:      4.804e-05 rev/day^2
Epoch rev:           14156
Checksum:              321

Satellite: TISAT-1
Catalog number: 36799
Epoch time:      12096.48129916
Element set:     855
Inclination:      098.0659 deg
RA of node:       172.2856 deg
Eccentricity:    0.0016022
Arg of perigee:   051.9718 deg
Mean anomaly:     308.2942 deg
Mean motion:   14.81695432 rev/day
Decay rate:      1.852e-05 rev/day^2
Epoch rev:            9372
Checksum:              338

Satellite: STUDSAT
Catalog number: 36801
Epoch time:      12095.91195747
Element set:    0417
Inclination:      098.0728 deg
RA of node:       172.1287 deg
Eccentricity:    0.0013718
Arg of perigee:   040.9219 deg
Mean anomaly:     319.3023 deg
Mean motion:   14.83581477 rev/day
Decay rate:      5.016e-05 rev/day^2
Epoch rev:           09365
Checksum:              309

Satellite: FO-69
Catalog number: 37227
Epoch time:      12096.30024898
Element set:    0144
Inclination:      071.9681 deg
RA of node:       112.7872 deg
Eccentricity:    0.0015225
Arg of perigee:   097.7284 deg
Mean anomaly:     262.5607 deg
Mean motion:   14.76988299 rev/day
Decay rate:       4.82e-06 rev/day^2
Epoch rev:           02533
Checksum:              337

